EN

Hourly Weather Ali-Kuyu

Today, 20 January, Wednesday

Time Temperature Precipitation Wind Pressure Humidity
00:00 -1°C° 0 mm 1 mps 758 mmHg 65%
01:00 -1°C° 0 mm 1 mps 758 mmHg 64%
02:00 -1°C° 0 mm 1 mps 758 mmHg 63%
03:00 -2°C° 0 mm 1 mps 758 mmHg 65%
04:00 -2°C° 0 mm 1 mps 758 mmHg 65%
05:00 -2°C° 0 mm 1 mps 758 mmHg 66%
06:00 -4°C° 0 mm 2 mps 758 mmHg 66%
07:00 -4°C° 0 mm 2 mps 758 mmHg 67%
08:00 -4°C° 0 mm 2 mps 758 mmHg 67%
09:00 -4°C° 0 mm 2 mps 759 mmHg 70%
10:00 -3°C° 0 mm 2 mps 759 mmHg 69%
11:00 -3°C° 0 mm 2 mps 759 mmHg 67%
12:00 -3°C° 0 mm 2 mps 759 mmHg 66%
13:00 -2°C° 0 mm 2 mps 759 mmHg 65%
14:00 -2°C° 0 mm 2 mps 759 mmHg 63%
15:00 0°C° 0 mm 1 mps 759 mmHg 64%
16:00 -3°C° 0 mm 2 mps 760 mmHg 69%
17:00 -3°C° 0 mm 2 mps 760 mmHg 73%
18:00 -4°C° 0 mm 2 mps 761 mmHg 78%
19:00 -4°C° 0.1 mm 2 mps 761 mmHg 81%
20:00 -4°C° 0.1 mm 2 mps 762 mmHg 85%
21:00 -5°C° 0.1 mm 2 mps 762 mmHg 88%
22:00 -3°C° 0 mm 1 mps 762 mmHg 88%
23:00 -3°C° 0 mm 1 mps 763 mmHg 88%

Tomorrow, 21 January, Thursday

Time Temperature Precipitation Wind Pressure Humidity
00:00 -3°C° 0 mm 1 mps 763 mmHg 88%
01:00 -3°C° 0 mm 1 mps 763 mmHg 88%
02:00 -3°C° 0 mm 1 mps 763 mmHg 88%
03:00 -5°C° 0 mm 2 mps 763 mmHg 88%
04:00 -4°C° 0 mm 1 mps 764 mmHg 88%
05:00 -4°C° 0 mm 1 mps 764 mmHg 88%
06:00 -4°C° 0 mm 1 mps 764 mmHg 89%
07:00 -4°C° 0 mm 1 mps 764 mmHg 86%
08:00 -4°C° 0 mm 1 mps 765 mmHg 84%
09:00 -4°C° 0 mm 1 mps 765 mmHg 81%
10:00 -5°C° 0 mm 2 mps 765 mmHg 75%
11:00 -4°C° 0 mm 2 mps 765 mmHg 68%
12:00 -4°C° 0 mm 3 mps 765 mmHg 61%
13:00 -2°C° 0 mm 3 mps 765 mmHg 60%
14:00 -2°C° 0 mm 2 mps 765 mmHg 58%
15:00 -1°C° 0 mm 2 mps 764 mmHg 57%
16:00 -2°C° 0 mm 2 mps 765 mmHg 61%
17:00 -1°C° 0 mm 1 mps 765 mmHg 65%
18:00 -3°C° 0 mm 0 mps 766 mmHg 70%
19:00 -3°C° 0 mm 0 mps 766 mmHg 69%
20:00 -2°C° 0 mm 1 mps 766 mmHg 68%
21:00 -2°C° 0 mm 1 mps 766 mmHg 68%
22:00 -2°C° 0 mm 1 mps 766 mmHg 67%
23:00 -3°C° 0 mm 2 mps 766 mmHg 66%

Day after tomorrow, 22 January, Friday

Time Temperature Precipitation Wind Pressure Humidity
00:00 -3°C° 0 mm 2 mps 766 mmHg 65%
01:00 -3°C° 0 mm 2 mps 766 mmHg 64%
02:00 -3°C° 0 mm 2 mps 765 mmHg 63%
03:00 -3°C° 0 mm 2 mps 765 mmHg 63%
04:00 -3°C° 0 mm 2 mps 765 mmHg 61%
05:00 -4°C° 0 mm 3 mps 765 mmHg 59%
06:00 -2°C° 0 mm 3 mps 765 mmHg 58%
07:00 -2°C° 0 mm 3 mps 765 mmHg 57%
08:00 -1°C° 0 mm 3 mps 765 mmHg 55%
09:00 -1°C° 0 mm 3 mps 765 mmHg 54%
10:00 +1°C° 0 mm 3 mps 765 mmHg 52%
11:00 +2°C° 0 mm 3 mps 765 mmHg 49%
12:00 +3°C° 0 mm 3 mps 764 mmHg 47%
13:00 +5°C° 0 mm 2 mps 764 mmHg 49%
14:00 +6°C° 0 mm 1 mps 764 mmHg 51%
15:00 +5°C° 0 mm 0 mps 763 mmHg 54%
16:00 +5°C° 0 mm 1 mps 763 mmHg 55%
17:00 +3°C° 0 mm 1 mps 764 mmHg 57%
18:00 +1°C° 0 mm 2 mps 764 mmHg 59%
19:00 +1°C° 0 mm 2 mps 764 mmHg 61%
20:00 +1°C° 0 mm 2 mps 764 mmHg 63%
21:00 +1°C° 0 mm 2 mps 764 mmHg 66%
22:00 +1°C° 0 mm 2 mps 764 mmHg 68%
23:00 -1°C° 0 mm 2 mps 763 mmHg 71%

23 January, Saturday

Time Temperature Precipitation Wind Pressure Humidity
00:00 -1°C° 0 mm 2 mps 763 mmHg 73%
01:00 -1°C° 0 mm 2 mps 763 mmHg 72%
02:00 -1°C° 0 mm 2 mps 763 mmHg 71%
03:00 -1°C° 0 mm 2 mps 762 mmHg 70%
04:00 -1°C° 0 mm 2 mps 762 mmHg 67%
05:00 -1°C° 0 mm 2 mps 763 mmHg 64%
06:00 -1°C° 0 mm 2 mps 763 mmHg 62%
07:00 -1°C° 0 mm 2 mps 763 mmHg 62%
08:00 0°C° 0 mm 3 mps 763 mmHg 63%
09:00 0°C° 0 mm 3 mps 763 mmHg 63%
10:00 0°C° 0 mm 4 mps 762 mmHg 62%
11:00 +3°C° 0 mm 4 mps 762 mmHg 60%
12:00 +3°C° 0 mm 5 mps 762 mmHg 59%
13:00 +3°C° 0 mm 5 mps 761 mmHg 59%
14:00 +5°C° 0 mm 5 mps 761 mmHg 59%
15:00 +5°C° 0 mm 4 mps 761 mmHg 58%
16:00 +4°C° 0 mm 4 mps 761 mmHg 66%
17:00 +1°C° 0 mm 4 mps 761 mmHg 73%
18:00 +1°C° 0 mm 3 mps 761 mmHg 80%
19:00 +1°C° 0 mm 3 mps 761 mmHg 84%
20:00 0°C° 0 mm 3 mps 761 mmHg 88%
21:00 -1°C° 0 mm 3 mps 761 mmHg 92%
22:00 -1°C° 0 mm 2 mps 761 mmHg 93%
23:00 -1°C° 0 mm 2 mps 760 mmHg 95%

24 January, Sunday

Time Temperature Precipitation Wind Pressure Humidity
00:00 0°C° 0 mm 1 mps 760 mmHg 96%
01:00 0°C° 0 mm 1 mps 760 mmHg 97%
02:00 0°C° 0 mm 1 mps 759 mmHg 97%
03:00 0°C° 0 mm 1 mps 759 mmHg 97%
04:00 0°C° 0 mm 1 mps 759 mmHg 97%
05:00 0°C° 0 mm 1 mps 759 mmHg 97%
06:00 0°C° 0 mm 1 mps 759 mmHg 97%
07:00 0°C° 0 mm 1 mps 759 mmHg 96%
08:00 +1°C° 0 mm 1 mps 759 mmHg 94%
09:00 +1°C° 0 mm 1 mps 759 mmHg 93%
10:00 +2°C° 0 mm 1 mps 759 mmHg 87%
11:00 +2°C° 0 mm 1 mps 758 mmHg 81%
12:00 +3°C° 0 mm 1 mps 758 mmHg 75%
13:00 +3°C° 0 mm 2 mps 758 mmHg 71%
14:00 +4°C° 0 mm 2 mps 757 mmHg 66%
15:00 +5°C° 0 mm 2 mps 757 mmHg 62%
16:00 +3°C° 0 mm 2 mps 757 mmHg 68%
17:00 +2°C° 0 mm 2 mps 757 mmHg 74%
18:00 +2°C° 0 mm 1 mps 757 mmHg 80%
19:00 +1°C° 0 mm 2 mps 757 mmHg 79%
20:00 +1°C° 0 mm 2 mps 757 mmHg 78%
21:00 +1°C° 0 mm 2 mps 757 mmHg 78%
22:00 +1°C° 0 mm 2 mps 757 mmHg 81%
23:00 -1°C° 0 mm 2 mps 757 mmHg 84%

25 January, Monday

Time Temperature Precipitation Wind Pressure Humidity
00:00 -1°C° 0 mm 2 mps 757 mmHg 87%
01:00 -1°C° 0 mm 2 mps 756 mmHg 89%
02:00 +1°C° 0 mm 1 mps 756 mmHg 91%
03:00 +1°C° 0 mm 1 mps 756 mmHg 93%
04:00 +1°C° 0 mm 1 mps 756 mmHg 92%
05:00 +1°C° 0 mm 1 mps 756 mmHg 92%
06:00 0°C° 0 mm 1 mps 756 mmHg 91%
07:00 +1°C° 0 mm 1 mps 757 mmHg 88%
08:00 +2°C° 0 mm 1 mps 757 mmHg 85%
09:00 +2°C° 0 mm 0 mps 757 mmHg 82%
10:00 +3°C° 0 mm 1 mps 757 mmHg 76%
11:00 +4°C° 0 mm 1 mps 757 mmHg 70%
12:00 +5°C° 0 mm 1 mps 757 mmHg 64%
13:00 +6°C° 0 mm 1 mps 756 mmHg 62%
14:00 +6°C° 0 mm 1 mps 756 mmHg 61%
15:00 +6°C° 0 mm 1 mps 756 mmHg 59%
16:00 +5°C° 0 mm 1 mps 756 mmHg 63%
17:00 +4°C° 0 mm 1 mps 756 mmHg 67%
18:00 +2°C° 0 mm 1 mps 756 mmHg 71%
19:00 +1°C° 0 mm 2 mps 756 mmHg 75%
20:00 +1°C° 0 mm 2 mps 756 mmHg 78%
21:00 +1°C° 0 mm 2 mps 756 mmHg 82%
22:00 +1°C° 0 mm 2 mps 756 mmHg 85%
23:00 +1°C° 0 mm 2 mps 756 mmHg 88%
Show more